Home   Weather   Latakia   Past weeks
Flag for Syria

Past Weather in Latakia, Syria — Yesterday and Last 2 Weeks

Now
93 °F

Sunny.


Feels Like: 92 °F
Forecast: 81 / 78 °F
Wind: 7 mph from West

Location: Lattakia Airport

Current Time: Jul 17, 2019 at 1:55:14 pm

Latest Report: Jul 17, 2019 at 1:00 pm


Visibility: 10 mi

Pressure: 29.59 "Hg

Humidity: 30%

Dew Point: 57 °F

Location of LatakiaLocation

Past Weather in Latakia — Graph

°F

Latakia Temperature Yesterday

Maximum temperature yesterday: 86 °F (at 3:00 pm)
Minimum temperature yesterday: 73 °F (at 5:00 am)
Average temperature yesterday: 80 °F

High & Low Weather Summary for the Past Weeks

 TemperatureHumidityPressure
High91 °F (Jul 17, 12:00 pm)89% (Jul 5, 11:00 pm)29.83 "Hg (Jul 5, 11:00 pm)
Low68 °F (Jul 3, 2:00 am)30% (Jul 17, 12:00 pm)29.62 "Hg (Jul 6, 5:00 pm)
Average80 °F69%29.72 "Hg
* Reported Jul 2 12:00 pm — Jul 17 12:00 pm, Latakia. Weather by CustomWeather, © 2019

Note: Actual official high and low records may vary slightly from our data, if they occured in-between our weather recording intervals... More about our weather records

Advertising

Latakia Weather History for the Previous 24 Hours

Scroll right to see more
 ConditionsComfort  
Time TempWeatherWind HumidityBarometerVisibility
12:00 pm
Wed, Jul 17
91 °FSunny.3 mph30%29.62 "Hg10 mi
11:00 am88 °FSunny.6 mph38%29.65 "Hg10 mi
10:00 am86 °FSunny.3 mph33%29.65 "Hg10 mi
8:00 am81 °FPassing clouds.3 mph45%29.65 "HgN/A
7:00 am73 °FSunny.7 mph61%29.65 "Hg10 mi
6:00 am70 °FSunny.6 mph57%29.68 "Hg10 mi
5:00 am70 °FClear.2 mph57%29.68 "Hg10 mi
4:00 am70 °FClear.7 mph60%29.68 "Hg10 mi
3:00 am70 °FClear.5 mph64%29.71 "Hg10 mi
2:00 am72 °FPassing clouds.6 mph73%29.71 "HgN/A
1:00 am73 °FClear.5 mph74%29.74 "Hg10 mi
12:00 am73 °FPassing clouds.3 mph83%29.74 "HgN/A
11:00 pm
Tue, Jul 16
75 °FPassing clouds.6 mph78%29.74 "HgN/A
10:00 pm77 °FPassing clouds.5 mph79%29.74 "HgN/A
9:00 pm77 °FPassing clouds.5 mph79%29.74 "HgN/A
8:00 pm79 °FPassing clouds.7 mph74%29.74 "HgN/A
7:00 pm81 °FScattered clouds.9 mph70%29.74 "HgN/A
6:00 pm82 °FPassing clouds.9 mph66%29.74 "HgN/A
5:00 pm84 °FPassing clouds.9 mph62%29.74 "HgN/A
4:00 pm84 °FPassing clouds.9 mph62%29.74 "HgN/A
3:00 pm86 °FPassing clouds.12 mph62%29.74 "HgN/A
2:00 pm84 °FPassing clouds.9 mph66%29.74 "HgN/A
1:00 pm84 °FPassing clouds.12 mph62%29.77 "HgN/A
Weather by CustomWeather, © 2019

See weather overview